Time,TemperatureF,DewpointF,PressureIn,WindDirection,WindDirectionDegrees,WindSpeedMPH,WindSpeedGustMPH,Humidity,HourlyPrecipIn,Conditions,Clouds,dailyrainin,SoftwareType,DateUTC
2013-02-04 00:03:00,19.0,12.0,-100.00,East,80,6.0,11.0,72,0.00,,,-99.99,,2013-02-04 05:03:00,
2013-02-04 00:11:00,19.0,12.0,-100.00,ENE,65,1.0,8.0,72,0.00,,,-99.99,,2013-02-04 05:11:00,
2013-02-04 00:22:00,19.0,12.0,-100.00,NE,35,3.0,6.0,74,0.00,,,-99.99,,2013-02-04 05:22:00,
2013-02-04 00:33:00,19.0,12.0,-100.00,NE,40,4.0,8.0,75,0.00,,,-99.99,,2013-02-04 05:33:00,
2013-02-04 00:42:00,19.0,12.0,-100.00,NE,50,3.0,6.0,75,0.00,,,-99.99,,2013-02-04 05:42:00,
2013-02-04 00:52:00,18.0,12.0,-100.00,NNE,25,2.0,4.0,75,0.00,,,-99.99,,2013-02-04 05:52:00,
2013-02-04 01:02:00,18.0,11.0,-100.00,NNE,20,2.0,4.0,76,0.00,,,-99.99,,2013-02-04 06:02:00,
2013-02-04 01:11:00,17.0,11.0,-100.00,NNE,25,4.0,7.0,76,0.00,,,-99.99,,2013-02-04 06:11:00,
2013-02-04 01:21:00,17.0,11.0,-100.00,NNE,20,3.0,6.0,77,0.00,,,-99.99,,2013-02-04 06:21:00,
2013-02-04 01:32:00,17.0,11.0,-100.00,NNE,20,1.0,4.0,77,0.00,,,-99.99,,2013-02-04 06:32:00,
2013-02-04 01:42:00,17.0,12.0,-100.00,NNE,20,3.0,6.0,77,0.00,,,-99.99,,2013-02-04 06:42:00,
2013-02-04 01:52:00,18.0,12.0,-100.00,North,0,1.0,3.0,78,0.00,,,-99.99,,2013-02-04 06:52:00,
2013-02-04 02:02:00,18.0,12.0,-100.00,North,0,2.0,6.0,78,0.00,,,-99.99,,2013-02-04 07:02:00,
2013-02-04 02:11:00,18.0,12.0,-100.00,North,0,1.0,3.0,78,0.00,,,-99.99,,2013-02-04 07:11:00,
2013-02-04 02:21:00,18.0,12.0,-100.00,North,5,1.0,4.0,78,0.00,,,-99.99,,2013-02-04 07:21:00,
2013-02-04 02:32:00,18.0,12.0,-100.00,NNE,15,3.0,4.0,78,0.00,,,-99.99,,2013-02-04 07:32:00,
2013-02-04 02:42:00,17.0,12.0,-100.00,North,0,1.0,5.0,78,0.00,,,-99.99,,2013-02-04 07:42:00,
2013-02-04 02:52:00,17.0,11.0,-100.00,NW,320,1.0,3.0,79,0.00,,,-99.99,,2013-02-04 07:52:00,
2013-02-04 03:01:00,17.0,11.0,-100.00,North,0,1.0,2.0,80,0.00,,,-99.99,,2013-02-04 08:01:00,
2013-02-04 03:11:00,17.0,12.0,-100.00,NW,320,1.0,3.0,81,0.00,,,-99.99,,2013-02-04 08:11:00,
2013-02-04 03:21:00,16.0,12.0,-100.00,NNW,330,1.0,2.0,81,0.00,,,-99.99,,2013-02-04 08:21:00,
2013-02-04 03:32:00,16.0,11.0,-100.00,NW,305,1.0,3.0,81,0.00,,,-99.99,,2013-02-04 08:32:00,
2013-02-04 03:42:00,16.0,12.0,-100.00,NW,315,2.0,4.0,82,0.00,,,-99.99,,2013-02-04 08:42:00,
2013-02-04 03:52:00,16.0,11.0,-100.00,NW,320,1.0,4.0,81,0.00,,,-99.99,,2013-02-04 08:52:00,
2013-02-04 04:02:00,16.0,11.0,-100.00,NW,320,1.0,3.0,81,0.00,,,-99.99,,2013-02-04 09:02:00,
2013-02-04 04:11:00,16.0,11.0,-100.00,NW,315,1.0,3.0,82,0.00,,,-99.99,,2013-02-04 09:11:00,
2013-02-04 04:21:00,16.0,11.0,-100.00,NW,315,1.0,2.0,82,0.00,,,-99.99,,2013-02-04 09:21:00,
2013-02-04 04:32:00,15.0,11.0,-100.00,NW,305,2.0,3.0,83,0.00,,,-99.99,,2013-02-04 09:32:00,
2013-02-04 04:42:00,16.0,11.0,-100.00,WNW,300,1.0,4.0,83,0.00,,,-99.99,,2013-02-04 09:42:00,
2013-02-04 04:51:00,16.0,11.0,-100.00,WNW,300,2.0,5.0,83,0.00,,,-99.99,,2013-02-04 09:51:00,
2013-02-04 05:01:00,16.0,12.0,-100.00,NW,315,2.0,4.0,83,0.00,,,-99.99,,2013-02-04 10:01:00,
2013-02-04 05:11:00,16.0,12.0,-100.00,North,0,2.0,4.0,84,0.00,,,-99.99,,2013-02-04 10:11:00,
2013-02-04 05:21:00,16.0,12.0,-100.00,North,10,2.0,4.0,84,0.00,,,-99.99,,2013-02-04 10:21:00,
2013-02-04 05:32:00,15.0,12.0,-100.00,NNE,15,2.0,9.0,84,0.00,,,-99.99,,2013-02-04 10:32:00,
2013-02-04 05:41:00,15.0,11.0,-100.00,North,0,1.0,3.0,84,0.00,,,-99.99,,2013-02-04 10:41:00,
2013-02-04 05:51:00,15.0,11.0,-100.00,North,10,2.0,5.0,85,0.00,,,-99.99,,2013-02-04 10:51:00,
2013-02-04 06:02:00,15.0,11.0,-100.00,NW,310,1.0,4.0,85,0.00,,,-99.99,,2013-02-04 11:02:00,
2013-02-04 06:11:00,15.0,11.0,-100.00,NW,315,1.0,3.0,85,0.00,,,-99.99,,2013-02-04 11:11:00,
2013-02-04 06:22:00,15.0,11.0,-100.00,NW,320,0.0,2.0,85,0.00,,,-99.99,,2013-02-04 11:22:00,
2013-02-04 06:32:00,15.0,11.0,-100.00,NW,315,1.0,3.0,86,0.00,,,-99.99,,2013-02-04 11:32:00,
2013-02-04 06:42:00,15.0,11.0,-100.00,North,0,1.0,3.0,86,0.00,,,-99.99,,2013-02-04 11:42:00,
2013-02-04 06:52:00,14.0,11.0,-100.00,NNE,15,1.0,4.0,86,0.00,,,-99.99,,2013-02-04 11:52:00,
2013-02-04 07:02:00,14.0,10.0,-100.00,NW,305,1.0,4.0,85,0.00,,,-99.99,,2013-02-04 12:02:00,
2013-02-04 07:12:00,14.0,10.0,-100.00,West,280,1.0,5.0,86,0.00,,,-99.99,,2013-02-04 12:12:00,
2013-02-04 07:22:00,14.0,11.0,-100.00,WNW,295,2.0,5.0,86,0.00,,,-99.99,,2013-02-04 12:22:00,
2013-02-04 07:32:00,15.0,11.0,-100.00,North,0,1.0,4.0,86,0.00,,,-99.99,,2013-02-04 12:32:00,
2013-02-04 07:42:00,15.0,12.0,-100.00,North,0,1.0,7.0,86,0.00,,,-99.99,,2013-02-04 12:42:00,
2013-02-04 07:52:00,15.0,12.0,-100.00,NE,55,1.0,4.0,85,0.00,,,-99.99,,2013-02-04 12:52:00,
2013-02-04 08:03:00,16.0,12.0,-100.00,West,270,1.0,5.0,85,0.00,,,-99.99,,2013-02-04 13:03:00,
2013-02-04 08:12:00,16.0,12.0,-100.00,West,280,2.0,5.0,85,0.00,,,-99.99,,2013-02-04 13:12:00,
2013-02-04 08:21:00,16.0,12.0,-100.00,NW,305,2.0,6.0,85,0.00,,,-99.99,,2013-02-04 13:21:00,
2013-02-04 08:33:00,17.0,13.0,-100.00,West,275,2.0,6.0,85,0.00,,,-99.99,,2013-02-04 13:33:00,
2013-02-04 08:42:00,17.0,13.0,-100.00,West,275,4.0,6.0,84,0.00,,,-99.99,,2013-02-04 13:42:00,
2013-02-04 08:51:00,18.0,14.0,-100.00,West,280,3.0,7.0,84,0.00,,,-99.99,,2013-02-04 13:51:00,
2013-02-04 09:03:00,18.0,14.0,-100.00,West,275,2.0,6.0,82,0.00,,,-99.99,,2013-02-04 14:03:00,
2013-02-04 09:12:00,19.0,14.0,-100.00,West,280,3.0,6.0,81,0.00,,,-99.99,,2013-02-04 14:12:00,
2013-02-04 09:22:00,20.0,14.0,-100.00,West,280,4.0,7.0,80,0.00,,,-99.99,,2013-02-04 14:22:00,
2013-02-04 09:33:00,20.0,15.0,-100.00,WNW,300,3.0,6.0,79,0.00,,,-99.99,,2013-02-04 14:33:00,
2013-02-04 09:42:00,21.0,15.0,-100.00,WNW,290,3.0,6.0,77,0.00,,,-99.99,,2013-02-04 14:42:00,
2013-02-04 09:52:00,21.0,15.0,-100.00,NW,310,2.0,6.0,76,0.00,,,-99.99,,2013-02-04 14:52:00,
2013-02-04 10:03:00,22.0,15.0,-100.00,West,265,2.0,6.0,75,0.00,,,-99.99,,2013-02-04 15:03:00,
2013-02-04 10:12:00,22.0,15.0,-100.00,West,275,4.0,6.0,74,0.00,,,-99.99,,2013-02-04 15:12:00,
2013-02-04 10:23:00,23.0,16.0,-100.00,WNW,295,4.0,7.0,73,0.00,,,-99.99,,2013-02-04 15:23:00,
2013-02-04 10:33:00,23.0,16.0,-100.00,WNW,300,4.0,9.0,72,0.00,,,-99.99,,2013-02-04 15:33:00,
2013-02-04 10:43:00,24.0,15.0,-100.00,NW,315,6.0,7.0,68,0.00,,,-99.99,,2013-02-04 15:43:00,
2013-02-04 10:52:00,25.0,14.0,-100.00,NW,315,6.0,9.0,64,0.00,,,-99.99,,2013-02-04 15:52:00,
2013-02-04 11:03:00,25.0,14.0,-100.00,NW,325,6.0,11.0,62,0.00,,,-99.99,,2013-02-04 16:03:00,
2013-02-04 11:11:00,25.0,14.0,-100.00,NW,320,6.0,10.0,62,0.00,,,-99.99,,2013-02-04 16:11:00,
2013-02-04 11:22:00,25.0,14.0,-100.00,NW,310,7.0,12.0,61,0.00,,,-99.99,,2013-02-04 16:22:00,
2013-02-04 11:33:00,26.0,14.0,-100.00,NW,310,9.0,12.0,60,0.00,,,-99.99,,2013-02-04 16:33:00,
2013-02-04 11:42:00,26.0,14.0,-100.00,WNW,295,7.0,12.0,59,0.00,,,-99.99,,2013-02-04 16:42:00,
2013-02-04 11:51:00,26.0,13.0,-100.00,NW,310,9.0,16.0,58,0.00,,,-99.99,,2013-02-04 16:51:00,
2013-02-04 12:02:00,26.0,14.0,-100.00,NW,315,7.0,12.0,59,0.00,,,-99.99,,2013-02-04 17:02:00,
2013-02-04 12:11:00,26.0,15.0,-100.00,WNW,300,8.0,14.0,60,0.00,,,-99.99,,2013-02-04 17:11:00,
2013-02-04 12:21:00,27.0,15.0,-100.00,WNW,285,9.0,14.0,60,0.00,,,-99.99,,2013-02-04 17:21:00,
2013-02-04 12:32:00,27.0,14.0,-100.00,WNW,295,9.0,14.0,57,0.00,,,-99.99,,2013-02-04 17:32:00,
2013-02-04 12:42:00,27.0,14.0,-100.00,NW,315,9.0,13.0,56,0.00,,,-99.99,,2013-02-04 17:42:00,
2013-02-04 12:51:00,28.0,14.0,-100.00,WNW,300,10.0,14.0,56,0.00,,,-99.99,,2013-02-04 17:51:00,
2013-02-04 13:03:00,28.0,14.0,-100.00,WNW,300,10.0,15.0,56,0.00,,,-99.99,,2013-02-04 18:03:00,
2013-02-04 13:11:00,28.0,14.0,-100.00,NW,320,8.0,11.0,56,0.00,,,-99.99,,2013-02-04 18:11:00,
2013-02-04 13:22:00,28.0,14.0,-100.00,NW,320,8.0,11.0,56,0.00,,,-99.99,,2013-02-04 18:22:00,
2013-02-04 13:32:00,28.0,14.0,-100.00,NW,315,6.0,13.0,56,0.00,,,-99.99,,2013-02-04 18:32:00,
2013-02-04 13:42:00,27.0,16.0,-100.00,NW,305,9.0,13.0,62,0.00,,,-99.99,,2013-02-04 18:42:00,
2013-02-04 13:52:00,27.0,18.0,-100.00,WNW,290,6.0,9.0,67,0.00,,,-99.99,,2013-02-04 18:52:00,
2013-02-04 14:02:00,27.0,19.0,-100.00,NW,305,6.0,14.0,73,0.00,,,-99.99,,2013-02-04 19:02:00,
2013-02-04 14:11:00,26.0,20.0,-100.00,NW,305,6.0,9.0,76,0.55,,,-99.99,,2013-02-04 19:11:00,
2013-02-04 14:22:00,26.0,21.0,-100.00,WNW,295,6.0,11.0,83,0.00,,,-99.99,,2013-02-04 19:22:00,
2013-02-04 14:32:00,26.0,22.0,-100.00,WNW,285,4.0,7.0,87,0.55,,,-99.99,,2013-02-04 19:32:00,
2013-02-04 14:42:00,25.0,23.0,-100.00,West,275,4.0,6.0,89,0.55,,,-99.99,,2013-02-04 19:42:00,
2013-02-04 14:52:00,26.0,23.0,-100.00,West,260,4.0,6.0,90,0.00,,,-99.99,,2013-02-04 19:52:00,
2013-02-04 15:02:00,26.0,23.0,-100.00,West,265,5.0,7.0,90,1.10,,,-99.99,,2013-02-04 20:02:00,
2013-02-04 15:12:00,26.0,23.0,-100.00,West,280,4.0,7.0,91,1.69,,,-99.99,,2013-02-04 20:12:00,
2013-02-04 15:22:00,26.0,24.0,-100.00,WNW,300,2.0,7.0,91,0.55,,,-99.99,,2013-02-04 20:22:00,
2013-02-04 15:32:00,26.0,24.0,-100.00,West,270,2.0,5.0,92,0.55,,,-99.99,,2013-02-04 20:32:00,
2013-02-04 15:42:00,26.0,24.0,-100.00,WNW,300,3.0,6.0,92,0.55,,,-99.99,,2013-02-04 20:42:00,
2013-02-04 15:52:00,26.0,24.0,-100.00,NW,310,3.0,6.0,92,0.00,,,-99.99,,2013-02-04 20:52:00,
2013-02-04 16:03:00,26.0,25.0,-100.00,NW,305,4.0,7.0,92,0.00,,,-99.99,,2013-02-04 21:03:00,
2013-02-04 16:11:00,27.0,25.0,-100.00,West,270,3.0,6.0,92,0.00,,,-99.99,,2013-02-04 21:11:00,
2013-02-04 16:22:00,26.0,25.0,-100.00,West,280,2.0,6.0,92,0.00,,,-99.99,,2013-02-04 21:22:00,
2013-02-04 16:32:00,26.0,25.0,-100.00,WNW,290,3.0,6.0,93,0.55,,,-99.99,,2013-02-04 21:32:00,
2013-02-04 16:42:00,27.0,25.0,-100.00,West,270,3.0,4.0,93,0.55,,,-99.99,,2013-02-04 21:42:00,
2013-02-04 16:52:00,27.0,25.0,-100.00,West,280,3.0,6.0,93,0.00,,,-99.99,,2013-02-04 21:52:00,
2013-02-04 17:03:00,27.0,26.0,-100.00,NW,305,2.0,4.0,94,0.00,,,-99.99,,2013-02-04 22:03:00,
2013-02-04 17:12:00,27.0,26.0,-100.00,NW,310,2.0,5.0,94,0.00,,,-99.99,,2013-02-04 22:12:00,
2013-02-04 17:21:00,28.0,26.0,-100.00,North,0,1.0,6.0,94,1.10,,,-99.99,,2013-02-04 22:21:00,
2013-02-04 17:32:00,28.0,26.0,-100.00,NNW,335,2.0,8.0,94,0.55,,,-99.99,,2013-02-04 22:32:00,
2013-02-04 17:42:00,28.0,26.0,-100.00,WNW,300,2.0,4.0,94,0.00,,,-99.99,,2013-02-04 22:42:00,
2013-02-04 17:51:00,28.0,26.0,-100.00,West,265,1.0,4.0,94,0.00,,,-99.99,,2013-02-04 22:51:00,
2013-02-04 18:02:00,28.0,26.0,-100.00,WNW,295,2.0,9.0,94,0.00,,,-99.99,,2013-02-04 23:02:00,
2013-02-04 18:11:00,28.0,26.0,-100.00,NNW,340,2.0,6.0,94,0.00,,,-99.99,,2013-02-04 23:11:00,
2013-02-04 18:21:00,28.0,26.0,-100.00,WNW,300,3.0,6.0,94,0.55,,,-99.99,,2013-02-04 23:21:00,
2013-02-04 18:32:00,28.0,26.0,-100.00,NNW,335,3.0,5.0,94,0.00,,,-99.99,,2013-02-04 23:32:00,
2013-02-04 18:42:00,28.0,26.0,-100.00,NW,320,3.0,6.0,94,0.00,,,-99.99,,2013-02-04 23:42:00,
2013-02-04 18:52:00,28.0,26.0,-100.00,NNW,340,2.0,6.0,94,0.00,,,-99.99,,2013-02-04 23:52:00,
2013-02-04 19:02:00,28.0,27.0,-100.00,North,355,3.0,6.0,94,0.00,,,-99.99,,2013-02-05 00:02:00,
2013-02-04 19:11:00,28.0,26.0,-100.00,WNW,290,3.0,6.0,94,0.00,,,-99.99,,2013-02-05 00:11:00,
2013-02-04 19:22:00,28.0,27.0,-100.00,WNW,300,4.0,6.0,94,0.00,,,-99.99,,2013-02-05 00:22:00,
2013-02-04 19:32:00,28.0,27.0,-100.00,NW,320,4.0,6.0,94,0.00,,,-99.99,,2013-02-05 00:32:00,
2013-02-04 19:42:00,28.0,26.0,-100.00,NW,310,4.0,7.0,94,0.00,,,-99.99,,2013-02-05 00:42:00,
2013-02-04 19:51:00,28.0,27.0,-100.00,NW,320,4.0,6.0,94,0.00,,,-99.99,,2013-02-05 00:51:00,
2013-02-04 20:02:00,28.0,27.0,-100.00,NW,320,4.0,8.0,94,0.00,,,-99.99,,2013-02-05 01:02:00,
2013-02-04 20:11:00,28.0,27.0,-100.00,NNW,330,3.0,7.0,94,0.00,,,-99.99,,2013-02-05 01:11:00,
2013-02-04 20:22:00,29.0,27.0,-100.00,NW,320,3.0,7.0,94,0.00,,,-99.99,,2013-02-05 01:22:00,
2013-02-04 20:32:00,28.0,27.0,-100.00,NW,315,2.0,7.0,94,0.00,,,-99.99,,2013-02-05 01:32:00,
2013-02-04 20:42:00,29.0,27.0,-100.00,NW,310,3.0,5.0,94,0.00,,,-99.99,,2013-02-05 01:42:00,
2013-02-04 20:52:00,29.0,27.0,-100.00,WNW,285,2.0,5.0,94,0.00,,,-99.99,,2013-02-05 01:52:00,
2013-02-04 21:01:00,29.0,28.0,-100.00,NNW,330,2.0,7.0,94,0.00,,,-99.99,,2013-02-05 02:01:00,
2013-02-04 21:11:00,29.0,28.0,-100.00,North,0,4.0,8.0,94,0.00,,,-99.99,,2013-02-05 02:11:00,
2013-02-04 21:22:00,29.0,28.0,-100.00,NE,45,1.0,6.0,94,0.00,,,-99.99,,2013-02-05 02:22:00,
2013-02-04 21:32:00,29.0,28.0,-100.00,NE,35,1.0,3.0,94,0.00,,,-99.99,,2013-02-05 02:32:00,
2013-02-04 21:42:00,29.0,28.0,-100.00,NE,35,2.0,4.0,94,0.00,,,-99.99,,2013-02-05 02:42:00,
2013-02-04 21:52:00,30.0,28.0,-100.00,NNE,20,2.0,6.0,94,0.00,,,-99.99,,2013-02-05 02:52:00,
2013-02-04 22:02:00,29.0,28.0,-100.00,NE,50,1.0,3.0,93,0.00,,,-99.99,,2013-02-05 03:02:00,
2013-02-04 22:11:00,30.0,28.0,-100.00,NE,40,1.0,5.0,93,0.00,,,-99.99,,2013-02-05 03:11:00,
2013-02-04 22:21:00,30.0,28.0,-100.00,NE,50,1.0,3.0,93,0.00,,,-99.99,,2013-02-05 03:21:00,
2013-02-04 22:32:00,30.0,28.0,-100.00,NNE,30,1.0,4.0,93,0.00,,,-99.99,,2013-02-05 03:32:00,
2013-02-04 22:42:00,30.0,28.0,-100.00,ESE,105,1.0,3.0,93,0.00,,,-99.99,,2013-02-05 03:42:00,
2013-02-04 22:51:00,30.0,28.0,-100.00,East,95,1.0,3.0,93,0.00,,,-99.99,,2013-02-05 03:51:00,
2013-02-04 23:01:00,30.0,28.0,-100.00,ESE,105,1.0,3.0,94,0.00,,,-99.99,,2013-02-05 04:01:00,
2013-02-04 23:11:00,30.0,28.0,-100.00,East,90,1.0,3.0,94,0.00,,,-99.99,,2013-02-05 04:11:00,
2013-02-04 23:21:00,30.0,28.0,-100.00,SSE,155,0.0,2.0,94,0.00,,,-99.99,,2013-02-05 04:21:00,
2013-02-04 23:32:00,30.0,28.0,-100.00,SE,135,0.0,3.0,94,0.00,,,-99.99,,2013-02-05 04:32:00,
2013-02-04 23:42:00,30.0,28.0,-100.00,NNE,20,0.0,3.0,94,0.00,,,-99.99,,2013-02-05 04:42:00,
2013-02-04 23:52:00,30.0,29.0,-100.00,North,5,2.0,5.0,94,0.00,,,-99.99,,2013-02-05 04:52:00,